| time (UTC) | temp C | wind direction | speed KPH | gust KPH | rain 1hr cm | rain 24hr cm | rain mn cm | humidity % | barometer mb |
| 20260504081534 | 7 | 92 | 0.0 | 3.2 | 0.00 | 0.03 | 0.00 | 81 | 1014.0 |
| 20260504044535 | 11 | 169 | 6.4 | 11.3 | 0.00 | 0.03 | 0.03 | 64 | 1014.7 |
| 20260504043057 | 9 | 178 | 3.2 | 8.0 | 0.00 | 0.03 | 0.03 | 71 | 1015.1 |
| 20260504041535 | 9 | 263 | 0.0 | 1.6 | 0.00 | 0.03 | 0.03 | 72 | 1015.4 |
| 20260504040013 | 9 | 263 | 0.0 | 0.0 | 0.00 | 0.03 | 0.03 | 71 | 1015.4 |
| 20260504034551 | 10 | 263 | 0.0 | 0.0 | 0.00 | 0.03 | 0.03 | 70 | 1015.7 |
| 20260504033028 | 10 | 263 | 0.0 | 0.0 | 0.00 | 0.03 | 0.03 | 70 | 1015.6 |
| 20260504031600 | 10 | 263 | 0.0 | 0.0 | 0.00 | 0.03 | 0.03 | 67 | 1015.7 |
| 20260504030033 | 10 | 263 | 0.0 | 0.0 | 0.00 | 0.03 | 0.03 | 64 | 1015.8 |
| 20260504024538 | 11 | 263 | 0.0 | 0.0 | 0.00 | 0.03 | 0.03 | 61 | 1015.8 |
| 20260504023039 | 12 | 263 | 0.0 | 0.0 | 0.00 | 0.03 | 0.03 | 60 | 1015.8 |
| 20260504021520 | 13 | 263 | 0.0 | 0.0 | 0.00 | 0.03 | 0.03 | 57 | 1015.7 |
| 20260504020053 | 14 | 263 | 0.0 | 0.0 | 0.00 | 0.03 | 0.03 | 52 | 1015.4 |
| 20260504014536 | 15 | 263 | 0.0 | 6.4 | 0.00 | 0.03 | 0.03 | 47 | 1015.2 |
| 20260504013105 | 15 | 232 | 0.0 | 3.2 | 0.00 | 0.03 | 0.03 | 46 | 1014.8 |
| 20260504011532 | 16 | 242 | 0.0 | 6.4 | 0.00 | 0.03 | 0.03 | 46 | 1015.1 |
| 20260504010015 | 17 | 236 | 0.0 | 3.2 | 0.00 | 0.03 | 0.03 | 44 | 1015.2 |
| 20260504004601 | 17 | 271 | 1.6 | 6.4 | 0.00 | 0.03 | 0.03 | 42 | 1015.3 |
| 20260504003011 | 18 | 235 | 1.6 | 9.7 | 0.00 | 0.03 | 0.03 | 39 | 1015.0 |
| 20260504001557 | 18 | 227 | 3.2 | 14.5 | 0.00 | 0.03 | 0.03 | 38 | 1015.2 |
| 20260504000037 | 19 | 224 | 4.8 | 14.5 | 0.00 | 0.03 | 0.03 | 36 | 1015.2 |
| 20260503234511 | 20 | 225 | 1.6 | 9.7 | 0.00 | 0.03 | 0.03 | 36 | 1015.5 |
| 20260503233031 | 20 | 261 | 6.4 | 14.5 | 0.00 | 0.13 | 0.03 | 34 | 1015.7 |
| 20260503231508 | 20 | 281 | 8.0 | 16.1 | 0.00 | 0.13 | 0.03 | 34 | 1015.7 |
| 20260503230045 | 20 | 257 | 3.2 | 14.5 | 0.00 | 0.13 | 0.03 | 34 | 1015.7 |
| 20260503224524 | 20 | 228 | 6.4 | 17.7 | 0.00 | 0.13 | 0.03 | 33 | 1015.8 |
| 20260503223043 | 20 | 299 | 6.4 | 14.5 | 0.00 | 0.13 | 0.03 | 32 | 1016.1 |
| 20260503221524 | 20 | 294 | 8.0 | 16.1 | 0.00 | 0.13 | 0.03 | 32 | 1016.2 |
| 20260503220005 | 20 | 225 | 8.0 | 20.9 | 0.00 | 0.13 | 0.03 | 32 | 1016.4 |
| 20260503214546 | 20 | 17 | 4.8 | 12.9 | 0.00 | 0.13 | 0.03 | 33 | 1016.5 |
| 20260503213006 | 20 | 242 | 4.8 | 20.9 | 0.00 | 0.15 | 0.03 | 32 | 1016.8 |
| 20260503211542 | 20 | 281 | 6.4 | 14.5 | 0.00 | 0.15 | 0.03 | 33 | 1017.0 |
| 20260503210030 | 20 | 269 | 9.7 | 19.3 | 0.00 | 0.15 | 0.03 | 34 | 1017.5 |
| 20260503204601 | 20 | 240 | 8.0 | 19.3 | 0.00 | 0.15 | 0.03 | 34 | 1017.6 |
| 20260503204505 | 20 | 208 | 6.4 | 19.3 | 0.00 | 0.15 | 0.03 | 33 | 1017.7 |
| 20260503203028 | 19 | 275 | 4.8 | 17.7 | 0.00 | 0.15 | 0.03 | 35 | 1017.9 |
| 20260503201507 | 19 | 285 | 11.3 | 19.3 | 0.00 | 0.15 | 0.03 | 33 | 1018.3 |
| 20260503200046 | 19 | 224 | 9.7 | 17.7 | 0.00 | 0.15 | 0.03 | 32 | 1018.5 |
| 20260503194524 | 19 | 275 | 6.4 | 20.9 | 0.00 | 0.15 | 0.03 | 33 | 1018.8 |
| 20260503193044 | 18 | 256 | 3.2 | 12.9 | 0.00 | 0.15 | 0.03 | 34 | 1018.9 |
| 20260503191524 | 18 | 192 | 8.0 | 19.3 | 0.00 | 0.15 | 0.03 | 34 | 1019.2 |
| 20260503190101 | 18 | 143 | 9.7 | 17.7 | 0.00 | 0.15 | 0.03 | 36 | 1019.4 |
| 20260503190003 | 18 | 216 | 8.0 | 14.5 | 0.00 | 0.15 | 0.03 | 35 | 1019.5 |
| 20260503184554 | 17 | 321 | 8.0 | 17.7 | 0.00 | 0.15 | 0.03 | 34 | 1019.6 |
| 20260503183004 | 17 | 177 | 4.8 | 16.1 | 0.00 | 0.15 | 0.03 | 34 | 1019.8 |
| 20260503181540 | 17 | 271 | 4.8 | 20.9 | 0.00 | 0.15 | 0.03 | 38 | 1020.0 |
| 20260503180016 | 17 | 302 | 8.0 | 12.9 | 0.00 | 0.15 | 0.03 | 38 | 1020.1 |
| 20260503174607 | 16 | 150 | 6.4 | 14.5 | 0.00 | 0.15 | 0.03 | 39 | 1020.2 |
| 20260503173019 | 16 | 140 | 4.8 | 14.5 | 0.00 | 0.15 | 0.03 | 37 | 1020.6 |
| 20260503171552 | 16 | 177 | 8.0 | 14.5 | 0.00 | 0.15 | 0.03 | 38 | 1020.9 |